AFR612 GQNO-LFPG

Flight info

Callsign AFR612
Flight time N/A
Altitude 39000
Route GUPEL Y601 KEMUL/N0482F400 Y601 LAY L660 SOLNA DCT ROLRO DCT ERMED DCT OSLAD DCT PESAS DCT PARKA DCT TLD DCT SIE DCT EDIGO DCT DGO L176 LUSEM DCT LULUT DCT POI/N0510F300 DCT PEPAX UT182 KEPER
Aircraft A359/H-SDE2E3GHIJ3J4J5LM1ORWXY/LB1D1

Departure

Time 2026-04-17 16:27
Airport Nouakchott–Oumtounsy International Airport (GQNO)

Arrival

Time N/A
Airport Charles de Gaulle International Airport (LFPG)
Time Latitude Longitude Altitude Speed Heading
2026-04-17 16:06 18.30702 -15.96369 16 ft 0 kts 59°
2026-04-17 16:17 18.30701 -15.96369 16 ft 1 kts 59°
2026-04-17 16:17 18.30689 -15.96392 20 ft 4 kts 59°
2026-04-17 16:18 18.30676 -15.96415 18 ft 2 kts 60°
2026-04-17 16:18 18.30667 -15.96437 18 ft 4 kts 101°
2026-04-17 16:18 18.30681 -15.96456 19 ft 4 kts 152°
2026-04-17 16:18 18.30694 -15.96463 15 ft 1 kts 149°
2026-04-17 16:21 18.30691 -15.96462 15 ft 3 kts 150°
2026-04-17 16:22 18.30633 -15.96445 17 ft 10 kts 193°
2026-04-17 16:22 18.30548 -15.96477 21 ft 13 kts 170°
2026-04-17 16:22 18.30462 -15.96432 20 ft 15 kts 150°
2026-04-17 16:22 18.30346 -15.96362 22 ft 20 kts 150°
2026-04-17 16:23 18.30219 -15.96283 24 ft 23 kts 150°
2026-04-17 16:23 18.30074 -15.96194 22 ft 23 kts 150°
2026-04-17 16:23 18.29930 -15.96107 19 ft 25 kts 150°
2026-04-17 16:23 18.29764 -15.96006 13 ft 29 kts 150°
2026-04-17 16:24 18.29589 -15.95899 13 ft 30 kts 150°
2026-04-17 16:24 18.29445 -15.95810 14 ft 21 kts 149°
2026-04-17 16:24 18.29319 -15.95733 20 ft 21 kts 150°
2026-04-17 16:24 18.29186 -15.95652 19 ft 23 kts 149°
2026-04-17 16:25 18.29070 -15.95623 20 ft 15 kts 214°
2026-04-17 16:25 18.29008 -15.95711 15 ft 10 kts 241°
2026-04-17 16:25 18.29034 -15.95766 14 ft 9 kts 326°
2026-04-17 16:25 18.29039 -15.95769 14 ft 0 kts 330°
2026-04-17 16:26 18.29040 -15.95769 14 ft 3 kts 330°
2026-04-17 16:26 18.29187 -15.95858 15 ft 56 kts 330°
2026-04-17 16:26 18.29722 -15.96184 13 ft 120 kts 330°
2026-04-17 16:26 18.30603 -15.96721 93 ft 166 kts 328°
2026-04-17 16:27 18.31582 -15.97279 857 ft 156 kts 330°
2026-04-17 16:27 18.32601 -15.97834 1293 ft 172 kts 336°
2026-04-17 16:27 18.33680 -15.98386 1911 ft 171 kts 337°
2026-04-17 16:27 18.34791 -15.98963 2121 ft 187 kts 336°
2026-04-17 16:28 18.36018 -15.99579 2294 ft 204 kts 341°
2026-04-17 16:28 18.37469 -15.99820 2431 ft 220 kts
2026-04-17 16:28 18.39049 -15.99621 2649 ft 237 kts 14°
2026-04-17 16:28 18.40703 -15.99180 2907 ft 254 kts 18°
2026-04-17 16:29 18.42418 -15.98595 3302 ft 263 kts 21°
2026-04-17 16:29 18.44167 -15.97953 3789 ft 268 kts 22°
2026-04-17 16:29 18.45918 -15.97312 4346 ft 271 kts 20°
2026-04-17 16:29 18.47713 -15.96675 4942 ft 273 kts 19°
2026-04-17 16:30 18.49529 -15.96050 5469 ft 276 kts 18°
2026-04-17 16:30 18.51371 -15.95431 6008 ft 280 kts 17°
2026-04-17 16:30 18.53239 -15.94811 6599 ft 283 kts 17°
2026-04-17 16:30 18.55120 -15.94192 7377 ft 283 kts 17°
2026-04-17 16:31 18.56994 -15.93575 8217 ft 282 kts 17°
2026-04-17 16:31 18.58868 -15.92958 9089 ft 281 kts 17°
2026-04-17 16:31 18.60736 -15.92341 9932 ft 282 kts 17°
2026-04-17 16:31 18.62658 -15.91706 10368 ft 299 kts 17°
2026-04-17 16:32 18.64711 -15.91029 10664 ft 318 kts 17°
2026-04-17 16:32 18.66889 -15.90310 10942 ft 337 kts 17°
2026-04-17 16:32 18.69185 -15.89553 11214 ft 354 kts 16°
2026-04-17 16:32 18.71583 -15.88760 11550 ft 367 kts 17°
2026-04-17 16:33 18.74051 -15.87941 12030 ft 375 kts 17°
2026-04-17 16:33 18.76559 -15.87109 12569 ft 381 kts 16°
2026-04-17 16:33 18.79096 -15.86265 13151 ft 385 kts 16°
2026-04-17 16:33 18.81676 -15.85408 13714 ft 391 kts 16°
2026-04-17 16:34 18.84285 -15.84542 14190 ft 395 kts 16°
2026-04-17 16:34 18.86881 -15.83680 14706 ft 399 kts 15°
2026-04-17 16:34 18.89548 -15.82795 15220 ft 403 kts 15°
2026-04-17 16:34 18.92235 -15.81902 15767 ft 406 kts 15°
2026-04-17 16:35 18.94906 -15.81015 16249 ft 411 kts 15°
2026-04-17 16:35 18.97644 -15.80105 16772 ft 415 kts 15°
2026-04-17 16:35 19.00414 -15.79185 17284 ft 419 kts 15°
2026-04-17 16:35 19.03209 -15.78256 17794 ft 423 kts 14°
2026-04-17 16:36 19.06037 -15.77316 18262 ft 428 kts 14°
2026-04-17 16:36 19.08887 -15.76368 18728 ft 432 kts 14°
2026-04-17 16:36 19.11761 -15.75411 19214 ft 435 kts 14°
2026-04-17 16:36 19.14660 -15.74445 19723 ft 438 kts 14°
2026-04-17 16:37 19.17582 -15.73471 20227 ft 442 kts 14°
2026-04-17 16:37 19.20528 -15.72489 20720 ft 446 kts 14°
2026-04-17 16:37 19.23493 -15.71500 21198 ft 449 kts 14°
2026-04-17 16:37 19.26491 -15.70500 21691 ft 453 kts 14°
2026-04-17 16:38 19.29511 -15.69492 22177 ft 457 kts 14°
2026-04-17 16:38 19.32551 -15.68477 22648 ft 460 kts 14°
2026-04-17 16:38 19.35618 -15.67453 23140 ft 464 kts 14°
2026-04-17 16:38 19.38713 -15.66419 23577 ft 468 kts 14°
2026-04-17 16:39 19.41826 -15.65379 24010 ft 471 kts 14°
2026-04-17 16:39 19.44962 -15.64330 24485 ft 473 kts 13°
2026-04-17 16:39 19.48113 -15.63276 24939 ft 476 kts 13°
2026-04-17 16:39 19.51282 -15.62216 25381 ft 479 kts 13°
2026-04-17 16:40 19.54469 -15.61149 25868 ft 482 kts 13°
2026-04-17 16:40 19.57676 -15.60075 26339 ft 485 kts 13°
2026-04-17 16:40 19.60899 -15.58995 26789 ft 488 kts 13°
2026-04-17 16:40 19.64148 -15.57906 27249 ft 490 kts 12°
2026-04-17 16:41 19.67406 -15.56814 27699 ft 493 kts 12°
2026-04-17 16:41 19.70691 -15.55712 28132 ft 496 kts 12°
2026-04-17 16:41 19.73990 -15.54605 28581 ft 499 kts 12°
2026-04-17 16:41 19.77267 -15.53505 29013 ft 502 kts 12°
2026-04-17 16:42 19.80606 -15.52383 29440 ft 505 kts 12°
2026-04-17 16:42 19.83968 -15.51253 29838 ft 508 kts 12°
2026-04-17 16:42 19.87343 -15.50118 30173 ft 510 kts 12°
2026-04-17 16:42 19.90736 -15.48977 30505 ft 513 kts 12°
2026-04-17 16:43 19.94139 -15.47832 30827 ft 515 kts 11°
2026-04-17 16:43 19.97560 -15.46680 31147 ft 517 kts 11°
2026-04-17 16:43 20.00995 -15.45523 31447 ft 519 kts 11°
2026-04-17 16:43 20.04442 -15.44361 31745 ft 521 kts 11°
2026-04-17 16:44 20.07902 -15.43195 32034 ft 523 kts 11°
2026-04-17 16:44 20.11372 -15.42023 32428 ft 522 kts 10°
2026-04-17 16:44 20.14822 -15.40856 32910 ft 519 kts 10°
2026-04-17 16:44 20.18257 -15.39693 33349 ft 518 kts 10°
2026-04-17 16:45 20.21682 -15.38534 33776 ft 516 kts 10°
2026-04-17 16:45 20.25101 -15.37378 34115 ft 515 kts
2026-04-17 16:45 20.28515 -15.36224 34407 ft 515 kts
2026-04-17 16:45 20.31933 -15.35069 34684 ft 515 kts
2026-04-17 16:46 20.35343 -15.33916 34967 ft 515 kts
2026-04-17 16:46 20.38757 -15.32761 35274 ft 514 kts
2026-04-17 16:46 20.42168 -15.31606 35550 ft 514 kts
2026-04-17 16:46 20.45572 -15.30453 35831 ft 514 kts
2026-04-17 16:47 20.48980 -15.29297 36134 ft 513 kts
2026-04-17 16:47 20.52375 -15.28144 36417 ft 512 kts
2026-04-17 16:47 20.55777 -15.26990 36675 ft 512 kts
2026-04-17 16:47 20.59174 -15.25837 36797 ft 514 kts
2026-04-17 16:48 20.65977 -15.23526 36812 ft 512 kts
2026-04-17 16:48 20.72766 -15.21218 36827 ft 512 kts
2026-04-17 16:49 20.78417 -15.19294 36818 ft 512 kts
2026-04-17 16:49 20.85209 -15.16980 36833 ft 512 kts
2026-04-17 16:50 20.92006 -15.14663 36818 ft 513 kts
2026-04-17 16:50 20.98801 -15.12343 36822 ft 513 kts
2026-04-17 16:51 21.05598 -15.10021 36820 ft 513 kts
2026-04-17 16:51 21.12391 -15.07698 36856 ft 513 kts
2026-04-17 16:52 21.19187 -15.05371 36826 ft 513 kts
2026-04-17 16:52 21.25977 -15.03044 36820 ft 513 kts
2026-04-17 16:53 21.32774 -15.00713 36820 ft 513 kts
2026-04-17 16:53 21.39590 -14.98527 36824 ft 509 kts
2026-04-17 16:54 21.46425 -14.96552 36833 ft 509 kts
2026-04-17 16:54 21.53213 -14.94584 36823 ft 509 kts
2026-04-17 16:55 21.60037 -14.92566 36826 ft 509 kts
2026-04-17 16:55 21.66860 -14.90528 36826 ft 509 kts
2026-04-17 16:56 21.73675 -14.88487 36826 ft 509 kts
2026-04-17 16:56 21.80496 -14.86445 36833 ft 509 kts
2026-04-17 16:57 21.87314 -14.84402 36828 ft 508 kts
2026-04-17 16:57 21.94127 -14.82359 36828 ft 508 kts
2026-04-17 16:58 22.00941 -14.80313 36829 ft 508 kts
2026-04-17 16:58 22.07757 -14.78265 36835 ft 508 kts
2026-04-17 16:59 22.14574 -14.76215 36840 ft 508 kts
2026-04-17 16:59 22.21387 -14.74163 36838 ft 508 kts
2026-04-17 17:00 22.28201 -14.72110 36836 ft 508 kts
2026-04-17 17:00 22.35014 -14.70055 36840 ft 509 kts
2026-04-17 17:01 22.41829 -14.67996 36842 ft 508 kts
2026-04-17 17:01 22.48643 -14.65936 36836 ft 509 kts
2026-04-17 17:02 22.55459 -14.63873 36841 ft 508 kts
2026-04-17 17:02 22.62269 -14.61810 36845 ft 509 kts
2026-04-17 17:03 22.69080 -14.59745 36847 ft 509 kts
2026-04-17 17:03 22.75898 -14.57675 36869 ft 509 kts
2026-04-17 17:04 22.82712 -14.55605 36853 ft 509 kts
2026-04-17 17:04 22.89487 -14.53544 36854 ft 509 kts
2026-04-17 17:05 22.96351 -14.51453 36856 ft 509 kts
2026-04-17 17:05 23.03122 -14.49389 36856 ft 509 kts
2026-04-17 17:06 23.09981 -14.47296 36863 ft 509 kts 10°
2026-04-17 17:06 23.16745 -14.45229 36856 ft 508 kts 10°
2026-04-17 17:07 23.23555 -14.43147 36859 ft 508 kts 10°
2026-04-17 17:07 23.30363 -14.41063 36859 ft 508 kts 10°
2026-04-17 17:08 23.37173 -14.38976 36863 ft 508 kts 10°
2026-04-17 17:08 23.43989 -14.36885 36863 ft 508 kts 10°
2026-04-17 17:09 23.50785 -14.34797 36867 ft 508 kts 10°
2026-04-17 17:09 23.57580 -14.32707 36867 ft 508 kts 10°
2026-04-17 17:10 23.64379 -14.30615 36874 ft 508 kts 10°
2026-04-17 17:10 23.71181 -14.28519 36870 ft 508 kts 10°
2026-04-17 17:11 23.77977 -14.26422 36869 ft 507 kts 11°
2026-04-17 17:11 23.84765 -14.24326 36870 ft 507 kts 11°
2026-04-17 17:12 23.91551 -14.22229 36870 ft 507 kts 11°
2026-04-17 17:12 23.98334 -14.20130 36878 ft 507 kts 11°
2026-04-17 17:13 24.05115 -14.18029 36878 ft 506 kts 11°
2026-04-17 17:13 24.11894 -14.15927 36875 ft 506 kts 11°
2026-04-17 17:14 24.18669 -14.13824 36875 ft 506 kts 11°
2026-04-17 17:15 24.28838 -14.10663 36878 ft 506 kts 11°
2026-04-17 17:15 24.35617 -14.08552 36894 ft 507 kts 11°
2026-04-17 17:16 24.42396 -14.06439 36880 ft 506 kts 11°
2026-04-17 17:16 24.49165 -14.04328 36881 ft 506 kts 11°
2026-04-17 17:17 24.55932 -14.02214 36880 ft 506 kts 11°
2026-04-17 17:17 24.62699 -14.00098 36880 ft 506 kts 11°
2026-04-17 17:18 24.69465 -13.97980 36888 ft 505 kts 11°
2026-04-17 17:18 24.76182 -13.95874 36889 ft 505 kts 11°
2026-04-17 17:19 24.82940 -13.93754 36890 ft 505 kts 11°
2026-04-17 17:19 24.89703 -13.91629 36895 ft 505 kts 11°
2026-04-17 17:20 24.96465 -13.89503 36895 ft 505 kts 11°
2026-04-17 17:20 25.03224 -13.87375 36897 ft 505 kts 12°
2026-04-17 17:21 25.09982 -13.85292 36889 ft 504 kts 11°
2026-04-17 17:21 25.16747 -13.83241 36889 ft 504 kts 11°
2026-04-17 17:22 25.23507 -13.81184 36899 ft 504 kts 11°
2026-04-17 17:22 25.30270 -13.79116 36910 ft 504 kts 11°
2026-04-17 17:23 25.37025 -13.77045 36898 ft 504 kts 11°
2026-04-17 17:23 25.43778 -13.74972 36896 ft 504 kts 11°
2026-04-17 17:24 25.50536 -13.72895 36897 ft 504 kts 11°
2026-04-17 17:24 25.57289 -13.70819 36894 ft 504 kts 11°
2026-04-17 17:25 25.64047 -13.68737 36899 ft 504 kts 12°
2026-04-17 17:25 25.70803 -13.66655 36894 ft 504 kts 12°
2026-04-17 17:26 25.77556 -13.64570 36896 ft 504 kts 12°
2026-04-17 17:26 25.84309 -13.62483 36894 ft 504 kts 12°
2026-04-17 17:27 25.91063 -13.60393 36898 ft 504 kts 12°
2026-04-17 17:27 25.97813 -13.58302 36897 ft 504 kts 12°
2026-04-17 17:28 26.04567 -13.56207 36897 ft 504 kts 12°
2026-04-17 17:28 26.11321 -13.54110 36903 ft 504 kts 12°
2026-04-17 17:29 26.18030 -13.52024 36906 ft 504 kts 12°
2026-04-17 17:29 26.24783 -13.49922 36915 ft 504 kts 12°
2026-04-17 17:30 26.31536 -13.47817 36910 ft 504 kts 12°
2026-04-17 17:30 26.38284 -13.45712 36911 ft 504 kts 12°
2026-04-17 17:31 26.45030 -13.43604 36911 ft 503 kts 12°
2026-04-17 17:31 26.51779 -13.41493 36916 ft 503 kts 12°
2026-04-17 17:32 26.58524 -13.39381 36917 ft 504 kts 12°
2026-04-17 17:32 26.65269 -13.37266 36919 ft 504 kts 12°
2026-04-17 17:33 26.72022 -13.35146 36925 ft 504 kts 12°
2026-04-17 17:33 26.78772 -13.33024 36922 ft 504 kts 12°
2026-04-17 17:34 26.85523 -13.30900 36935 ft 504 kts 12°
2026-04-17 17:34 26.92274 -13.28773 36931 ft 504 kts 12°
2026-04-17 17:35 26.99024 -13.26643 36939 ft 504 kts 12°
2026-04-17 17:35 27.05780 -13.24508 36938 ft 504 kts 12°
2026-04-17 17:36 27.12406 -13.21893 36938 ft 509 kts 24°
2026-04-17 17:36 27.17275 -13.18147 36942 ft 514 kts 41°
2026-04-17 17:37 27.22355 -13.12475 36937 ft 516 kts 45°
2026-04-17 17:37 27.27269 -13.06591 36941 ft 516 kts 45°
2026-04-17 17:38 27.32173 -13.00697 36940 ft 516 kts 45°
2026-04-17 17:38 27.37102 -12.94819 36939 ft 516 kts 45°
2026-04-17 17:39 27.42035 -12.88955 36936 ft 516 kts 45°
2026-04-17 17:39 27.46968 -12.83088 36943 ft 516 kts 45°